Location: Newark
(36.2667°N, 50.0000°E)
Time: 22:05:36
(UTC+00:00)

Hubble Space Telescope - Pass Details

Date: 01 October 2020
Orbit: 536 x 540 km, 28.5° (Epoch: 26 October)

Event Time Altitude Azimuth Distance (km) Brightness Sun altitude
Exits shadow 00:28:50 22° 144° (SE) 1,200 2.7 -26.0°
Drops below altitude 10° 00:30:53 10° 119° (ESE) 1,777 4.0 -25.6°
Sets 00:33:22 0° 107° (ESE) 2,667 5.2 -25.2°
